Flag for Germany Weather past 2 weeks in Bühl, Baden-Württemberg, Germany

Now
50 °F

Clear.


Feels Like: 47 °F
Forecast: 38 / 65 °F
Wind: 7 mph from North

Location: Karlsruhe - Baden Wurttemberg

Current Time: Apr 20, 2015 at 12:55:36 AM

Latest Report: Apr 20, 2015 at 12:20 AM


Visibility: 10 mi

Pressure: 30.15 "Hg

Humidity: 47%

Dew point: 30 °F

Location of BühlLocation

Historic Weather in Bühl — Graph

°F

Bühl temperature yesterday

Maximum temperature yesterday: 64 °F (at 3:20 PM)
Minimum temperature yesterday: 36 °F (at 6:50 AM)
Average temperature yesterday: 53 °F

Past Weeks' High & Low Weather Summary

 TemperatureHumidityPressure
High79 °F (Apr 15, 3:50 PM)94% (Apr 12, 6:50 AM)30.63 "Hg (Apr 12, 6:50 AM)
Low28 °F (Apr 6, 5:50 AM)17% (Apr 10, 5:20 PM)29.86 "Hg (Apr 17, 5:20 AM)
Average54 °F52%30.25 "Hg
* Reported Apr 5 5:20 AM — Apr 20 12:20 AM, Bühl, Weather by CustomWeather, © 2015

Note: Actual official high and low records may vary slightly from our data, if they occured in-between our weather recording intervals... More about our weather records

Advertising

Bühl weather history for previous 24 hours

 ConditionsComfort  
Time TempWeatherWind HumidityBarometerVisibility
12:20 AM
Mon, Apr 20
50 °FClear.7 mph47%30.15 "Hg10 mi
11:20 PM
Sun, Apr 19
48 °FClear.3 mph43%30.15 "Hg10 mi
10:50 PM50 °FClear.6 mph43%30.12 "Hg10 mi
10:20 PM50 °FClear.9 mph40%30.12 "Hg10 mi
9:50 PM54 °FClear.10 mph35%30.12 "Hg10 mi
9:20 PM55 °FSunny.12 mph33%30.09 "Hg10 mi
8:50 PM55 °FSunny.12 mph33%30.09 "Hg10 mi
8:20 PM59 °FSunny.13 mph27%30.07 "Hg10 mi
7:50 PM61 °FSunny.14 mph25%30.07 "Hg10 mi
7:20 PM63 °FSunny.17 mph24%30.04 "Hg10 mi
6:50 PM63 °FSunny.18 mph24%30.04 "Hg10 mi
6:20 PM64 °FSunny.18 mph22%30.04 "Hg10 mi
5:50 PM64 °FSunny.17 mph22%30.04 "Hg10 mi
5:20 PM64 °FSunny.16 mph24%30.04 "Hg10 mi
4:50 PM64 °FSunny.17 mph24%30.04 "Hg10 mi
4:20 PM64 °FSunny.18 mph24%30.04 "Hg10 mi
3:50 PM64 °FSunny.17 mph24%30.04 "Hg10 mi
3:20 PM64 °FSunny.18 mph26%30.04 "Hg10 mi
2:50 PM63 °FSunny.17 mph25%30.04 "Hg10 mi
2:20 PM63 °FPassing clouds.17 mph25%30.07 "HgN/A
1:50 PM61 °FPassing clouds.16 mph29%30.07 "HgN/A
1:20 PM61 °FSunny.16 mph29%30.07 "Hg10 mi
12:50 PM61 °FPassing clouds.13 mph25%30.07 "HgN/A
12:20 PM59 °FPassing clouds.13 mph25%30.07 "HgN/A
11:50 AM59 °FPassing clouds.12 mph29%30.09 "HgN/A
11:20 AM57 °FPassing clouds.9 mph29%30.09 "HgN/A
10:50 AM54 °FSunny.10 mph41%30.09 "Hg10 mi
10:20 AM52 °FSunny.10 mph44%30.09 "Hg10 mi
9:50 AM50 °FSunny.13 mph43%30.09 "Hg10 mi
9:20 AM48 °FSunny.10 mph50%30.09 "Hg10 mi
8:50 AM46 °FSunny.10 mph53%30.09 "Hg10 mi
8:20 AM43 °FSunny.8 mph57%30.12 "Hg10 mi
7:50 AM41 °FSunny.8 mph61%30.09 "Hg10 mi
7:20 AM37 °FClear.8 mph65%30.09 "Hg10 mi
6:50 AM36 °FClear.5 mph70%30.09 "Hg10 mi
6:20 AM37 °FClear.3 mph65%30.09 "Hg10 mi
5:50 AM37 °FClear.6 mph65%30.09 "Hg10 mi
5:20 AM37 °FClear.1 mph65%30.12 "Hg10 mi
4:50 AM37 °FClear.7 mph65%30.12 "Hg10 mi
2:50 AM41 °FClear.7 mph61%30.15 "Hg10 mi
12:50 AM45 °FClear.3 mph46%30.18 "Hg10 mi
12:20 AM45 °FClear.5 mph49%30.18 "Hg10 mi
Weather by CustomWeather, © 2015

See weather overviewHow to use our weather pages